Location: Lhota
(50.0887°N, 14.0116°E)
Time: 20:44:31
(UTC+00:00)

Cosmos 158 Rocket - Pass Details

Date: 19 May 2025
Orbit: 694 x 787 km, 74.0° (Epoch: 15 June)

Event Time Altitude Azimuth Distance (km) Brightness Sun altitude
Rises 20:31:44 0° 211° (SSW) 3,234 7.0 -12.6°
Reaches altitude 10° 20:34:07 10° 215° (SW) 2,321 6.3 -12.8°
Maximum altitude 20:39:22 65° 297° (WNW) 861 4.5 -13.3°
Drops below altitude 10° 20:44:44 10° 20° (NNE) 2,360 7.1 -13.8°
Sets 20:47:10 0° 23° (NNE) 3,292 7.8 -14.0°
